Regional Weather Roundup
Issued by NWS

Home | Current Version | Previous Version | Text Only | Print | Product List | Glossary On
Versions: 1 2 3 4 5 6 7 8 9 10 11 12 13 14 15 16 17 18 19 20 21 22 23 24 25 26 27
000
ASUS42 KTBW 311017
RWRFL
FLORIDA REGIONAL WEATHER ROUNDUP
NATIONAL WEATHER SERVICE TAMPA BAY RUSKIN FL
600 AM EDT TUE MAY 31 2016

NOTE: "FAIR" INDICATES FEW OR NO CLOUDS BELOW 12,000 FEET WITH NO
SIGNIFICANT WEATHER AND/OR OBSTRUCTIONS TO VISIBILITY.

FLZ001>010-012>015-112-114-115-311100-
PANHANDLE FLORIDA

CITY           SKY/WX    TMP DP  RH WIND       PRES   REMARKS
PENSACOLA      CLEAR     73  70  90 CALM      29.91S
CRESTVIEW      CLEAR     67  65  93 CALM      29.93S
DUKE FIELD     FAIR      70  69  95 NW3       29.91S
VALPARAISO     CLEAR     72  70  95 CALM      29.91S
MARY ESTHER    CLEAR     72  70  94 N1        29.90
TRI COUNTY     FAIR      67  65  93 CALM      29.92S
PANAMA CITY    FOG       71  70  96 CALM      29.91R VSB 1/4
TYNDALL AFB    CLEAR     78  76  93 W5        29.92R
APALACHICOLA   CLEAR     77  76  96 W6        29.92S

STATION/POSITION SKY/WX   TEMP    WIND        PRES    WAVE   SWELL
                          AIR SEA DIR/SP/G            HT/PER HT/PER
                          (F)     (DEG/KT/KT) (MB)    (FT/S) (FT/S)
30.1N   87.6W              81 82              1012.2R   1/ 3
29.2N   88.2W              80 81  260/  6/  8 1013.3R
28.8N   86.0W              78 81  270/  6/  8 1013.8F   1/ 3
PANAMA CITY BEAC           78 79  300/  7/  8 1013.2S
TOWER C                    78     280/ 10/ 11 1014.2R
28.5N   84.5W              79 80  290/  8/ 10 1013.4R   1

$$
FLZ011-016>038-118-127-128-134-139-239-311100-
NORTH FLORIDA

CITY           SKY/WX    TMP DP  RH WIND       PRES   REMARKS
MARIANNA       CLEAR     70  69  97 CALM      29.91R
TALLAHASSEE    FOG       71  69  93 CALM      29.91S VSB 1/4
PERRY          CLEAR     69  68  97 CALM      29.93R FOG
LIVE OAK       CLOUDY    72  72 100 CALM      29.94R
CROSS CITY       N/A     71  69  93 SW5       29.92R
LAKE CITY      FAIR      68  68 100 W3        29.92S
GAINESVILLE    CLEAR     67  65  93 CALM      29.92S
WILLISTON      FAIR      70  68  94 S3        29.94R
PALATKA        FAIR      66  66 100 W3        29.92R
MAYPORT NAS    PTCLDY    74  68  81 W8        29.90R
JACKSONVILLE   CLEAR     68  66  93 CALM      29.90R
JAX NAS        PTCLDY    74  67  78 SW7       29.91R
JAX CECIL        N/A     68  66  94 SW6       29.91R
FERNANDINA BEA FAIR      73  68  83 W6        29.89R
ST AUGUSTINE   CLEAR     72  67  84 W9        29.91R
PALM COAST     CLEAR     70  70 100 SW5       29.92R FOG

STATION/POSITION SKY/WX   TEMP    WIND        PRES    WAVE   SWELL
                          AIR SEA DIR/SP/G            HT/PER HT/PER
                          (F)     (DEG/KT/KT) (MB)    (FT/S) (FT/S)
SHELL POINT                74     280/  6/  8 1011.8
KEATON BEACH               80     260/ 10/ 11 1012.8R
CEDAR KEY                  79     270/  6/  7 1013.8R
FERNANDINA                 75 80  220/  5/  7 1011.8S
30.7N   81.3W                 78                N/A     3/ 8
MAYPORT                    75 80  240/  8/ 10 1012.2R
31.4N   80.9W              76 77  250/ 14/ 16 1011.3R   3/ 8   2/ 8
ST AUGUSTINE               71 79  240/  9/ 11 1013.4R

$$
FLZ040-043>046-052-053-057-058-063-144-311100-
INTERIOR CENTRAL FLORIDA

CITY           SKY/WX    TMP DP  RH WIND       PRES   REMARKS
OCALA          CLEAR     70  64  83 S5        29.93R
THE VILLAGES     N/A     72  70  94 MISG      29.84R
LEESBURG       CLEAR     73  69  87 CALM      29.94R
SANFORD        PTCLDY    72  69  90 S3        29.92R
ORLANDO EXEC   CLEAR     73  69  87 SW5       29.92S
ORLANDO INTL   PTCLDY    71  69  93 S5        29.93R
WINTER HAVEN   CLEAR     72  68  87 SW3       29.94S
LAKELAND       CLEAR     70  68  94 CALM      29.94S
BARTOW         FAIR      68 N/A N/A CALM      29.95S
OKEECHOBEE     CLEAR     64  64 100 CALM      29.94S FOG

$$
FLZ041-047-054-059-064-141-147-311100-
EAST CENTRAL FLORIDA

CITY           SKY/WX    TMP DP  RH WIND       PRES   REMARKS
DAYTONA BEACH  PTCLDY    69  69 100 CALM      29.92R
DELAND           N/A     70  68  94 CALM      29.94R
CAPE CANAVERAL CLEAR     74  69  87 SW3       29.90S
PATRICK AFB    CLEAR     74  71  87 S9        29.92R
MELBOURNE      CLEAR     72  69  90 SW6       29.92S
VERO BEACH     CLEAR     72  69  90 W3        29.93S
FT PIERCE      CLEAR     69  68  96 CALM      29.92F
STUART         CLEAR     73  70  88 CALM      29.94S

STATION/POSITION SKY/WX   TEMP    WIND        PRES    WAVE   SWELL
                          AIR SEA DIR/SP/G            HT/PER HT/PER
                          (F)     (DEG/KT/KT) (MB)    (FT/S) (FT/S)
28.5N   80.2W              79 79  200/ 10/ 10 1012.9S
28.9N   78.5W              79 79  190/ 12/ 14 1013.0F
TRIDENT PIER               76 82  200/  7/  8 1012.8F
28.4N   80.5W                 81                N/A     2/ 8
27.5N   80.2W                 81                N/A     2/ 8

$$
FLZ050-056-061-142-242-148-248-149-249-151-251-155-255-
160-260-311100-
WEST CENTRAL FLORIDA

CITY           SKY/WX    TMP DP  RH WIND       PRES   REMARKS
CRYSTAL RIVER  FAIR      68  66  94 CALM      29.93S
INVERNESS      FAIR      68  68 100 CALM      29.94R
BROOKSVILLE    CLEAR     68  67  96 CALM      29.95R
ZEPHYRHILLS    FAIR      59  57  92 CALM      29.95R
CLEARWATER AIR MOCLDY    72  70  94 CALM      29.93S
ST PETE CLEARW CLEAR     74  69  85 CALM      29.93R
TAMPA INTL     PTCLDY    77  72  84 CALM      29.94R
TAMPA EXEC       N/A     70  66  88 CALM      29.94S FOG
PLANT CITY     CLEAR     70  70 100 CALM      29.96S
MACDILL AFB    CLEAR     74  74 100 CALM      29.93R
PETER O KNIGHT CLEAR     75  72  88 CALM      29.94R
ST PETERSBURG  CLEAR     79  72  79 NW3       29.92R
SARASOTA       CLEAR     72  67  84 CALM      29.92R
VENICE         NOT AVBL

STATION/POSITION SKY/WX   TEMP    WIND        PRES    WAVE   SWELL
                          AIR SEA DIR/SP/G            HT/PER HT/PER
                          (F)     (DEG/KT/KT) (MB)    (FT/S) (FT/S)
27.3N   84.2W                 83                N/A     1
CLEARWATER BEACH           80 85  270/  4/  5 1013.4R
MIDDLE TAMPA BAY NOT AVBL
VENICE                     73 81   90/  6/  6 1013.2R

$$
FLZ066-069-070-075>078-162-262-165-265-311100-
SOUTHWEST FLORIDA AND KEYS

CITY           SKY/WX    TMP DP  RH WIND       PRES   REMARKS
PUNTA GORDA    CLEAR     67  65  93 E3        29.95S
FT MYERS       CLEAR     70  68  93 E3        29.93R
SOUTHWEST INTL CLEAR     70  67  90 CALM      29.94R
NAPLES         CLEAR     71  69  93 NE7       29.93R
MARCO ISLAND   CLEAR     70  64  83 NE7       29.93S
MARATHON       CLOUDY    79  71  76 CALM      29.91R
KEY WEST NAS   PTCLDY    78  71  79 SE6       29.91R
KEY WEST INTL  PTCLDY    80  73  79 SE7       29.91S

STATION/POSITION SKY/WX   TEMP    WIND        PRES    WAVE   SWELL
                          AIR SEA DIR/SP/G            HT/PER HT/PER
                          (F)     (DEG/KT/KT) (MB)    (FT/S) (FT/S)
NAPLES                        84              1013.0R
26.0N   85.6W              79 82   70/  4/  6 1013.8R   1
DRY TORTUGAS               81     110/  2/  3 1013.1R
SAND KEY                   81     130/  7/  8 1013.1R
LONG KEY                   81 86  110/  4/  5 1013.3R

$$
FLZ067-068-071>074-168-172>174-311100-
SOUTHEAST FLORIDA

CITY           SKY/WX    TMP DP  RH WIND       PRES   REMARKS
W PALM BEACH   PTCLDY    75  68  78 N3        29.94R
FT LAUDER-EXEC CLOUDY    76  71  85 NE3       29.92S
FT LAUDERDALE  PTCLDY    76  71  85 NW7       29.91S
POMPANO BEACH  PTCLDY    75  73  93 CALM      29.92S
PEMBROKE PINES PTCLDY    74  71  91 NW3       29.93S
OPA LOCKA      CLEAR     75  71  87 N7        29.93R
MIAMI          PTCLDY    75  72  90 CALM      29.92R
WEST KENDALL   CLEAR     72  70  93 CALM      29.92R
HOMESTEAD      CLEAR     74  72  94 NW3       29.92R

STATION/POSITION SKY/WX   TEMP    WIND        PRES    WAVE   SWELL
                          AIR SEA DIR/SP/G            HT/PER HT/PER
                          (F)     (DEG/KT/KT) (MB)    (FT/S) (FT/S)
PORT EVERGLADES            77     360/  7/ 10 1012.8F
VIRGINIA KEY               80 83  120/  2/  3 1013.0F
LAKE WORTH                 76 83  310/  6/  8 1013.0F
FOWEY ROCKS                81 83  110/  3/  4 1013.7R
SETTLEMENT POINT           78     130/  5/  5 1014.1R

$$





USA.gov is the U.S. government's official web portal to all federal, state and local government web resources and services.